| time (UTC) | temp F | wind direction | speed MPH | gust MPH | rain 1hr in | rain 24hr in | rain mn in | humidity % | barometer mb |
| 20260504120138 | 59 | 229 | 0.0 | 4.0 | 0.00 | 0.03 | 0.02 | 82 | 1007.1 |
| 20260504081526 | 61 | 58 | 0.0 | 2.0 | 0.00 | 0.03 | 0.02 | 77 | 1007.6 |
| 20260504044555 | 63 | 236 | 1.0 | 5.0 | 0.01 | 0.01 | 0.01 | 67 | 1007.4 |
| 20260504043058 | 64 | 200 | 0.0 | 4.0 | 0.01 | 0.01 | 0.01 | 68 | 1007.0 |
| 20260504041549 | 66 | 177 | 1.0 | 5.0 | 0.00 | 0.00 | 0.00 | 58 | 1008.1 |
| 20260504040100 | 66 | 190 | 2.0 | 8.0 | 0.00 | 0.00 | 0.00 | 55 | 1007.8 |
| 20260504034547 | 66 | 197 | 2.0 | 7.0 | 0.00 | 0.00 | 0.00 | 54 | 1008.2 |
| 20260504033049 | 67 | 207 | 1.0 | 8.0 | 0.00 | 0.00 | 0.00 | 53 | 1008.4 |
| 20260504031555 | 68 | 160 | 2.0 | 6.0 | 0.00 | 0.00 | 0.00 | 52 | 1008.5 |
| 20260504030045 | 67 | 204 | 1.0 | 3.0 | 0.00 | 0.00 | 0.00 | 53 | 1008.6 |
| 20260504024545 | 67 | 170 | 0.0 | 3.0 | 0.00 | 0.00 | 0.00 | 54 | 1008.5 |
| 20260504023043 | 67 | 212 | 0.0 | 3.0 | 0.00 | 0.00 | 0.00 | 54 | 1008.5 |
| 20260504021543 | 67 | 204 | 0.0 | 2.0 | 0.00 | 0.00 | 0.00 | 54 | 1008.4 |
| 20260504020050 | 68 | 214 | 0.0 | 1.0 | 0.00 | 0.00 | 0.00 | 52 | 1008.1 |
| 20260504014544 | 68 | 107 | 0.0 | 3.0 | 0.00 | 0.00 | 0.00 | 52 | 1008.0 |
| 20260504013043 | 69 | 228 | 0.0 | 2.0 | 0.00 | 0.00 | 0.00 | 50 | 1007.9 |
| 20260504011542 | 70 | 266 | 0.0 | 1.0 | 0.00 | 0.00 | 0.00 | 48 | 1007.8 |
| 20260504010040 | 71 | 172 | 0.0 | 2.0 | 0.00 | 0.00 | 0.00 | 46 | 1007.8 |
| 20260504004539 | 72 | 213 | 0.0 | 3.0 | 0.00 | 0.00 | 0.00 | 45 | 1007.8 |
| 20260504003038 | 72 | 213 | 0.0 | 3.0 | 0.00 | 0.00 | 0.00 | 45 | 1007.9 |
| 20260504001547 | 73 | 221 | 0.0 | 4.0 | 0.00 | 0.00 | 0.00 | 43 | 1007.9 |
| 20260504000036 | 74 | 281 | 0.0 | 6.0 | 0.00 | 0.00 | 0.00 | 42 | 1007.9 |
| 20260503234549 | 74 | 197 | 1.0 | 4.0 | 0.00 | 0.00 | 0.00 | 41 | 1007.9 |
| 20260503233038 | 75 | 217 | 1.0 | 4.0 | 0.00 | 0.00 | 0.00 | 40 | 1008.1 |
| 20260503231534 | 76 | 231 | 2.0 | 8.0 | 0.00 | 0.00 | 0.00 | 39 | 1008.3 |
| 20260503230028 | 77 | 277 | 1.0 | 6.0 | 0.00 | 0.00 | 0.00 | 39 | 1008.4 |
| 20260503224526 | 76 | 252 | 4.0 | 11.0 | 0.00 | 0.00 | 0.00 | 38 | 1008.6 |
| 20260503223023 | 76 | 212 | 4.0 | 13.0 | 0.00 | 0.00 | 0.00 | 36 | 1008.6 |
| 20260503221527 | 76 | 236 | 3.0 | 11.0 | 0.00 | 0.00 | 0.00 | 38 | 1008.8 |
| 20260503220020 | 76 | 238 | 4.0 | 9.0 | 0.00 | 0.00 | 0.00 | 38 | 1008.9 |
| 20260503214517 | 76 | 173 | 4.0 | 12.0 | 0.00 | 0.00 | 0.00 | 38 | 1009.2 |
| 20260503213014 | 75 | 263 | 4.0 | 11.0 | 0.00 | 0.00 | 0.00 | 38 | 1009.4 |
| 20260503211512 | 75 | 204 | 4.0 | 15.0 | 0.00 | 0.00 | 0.00 | 40 | 1009.4 |
| 20260503210010 | 74 | 218 | 6.0 | 15.0 | 0.00 | 0.00 | 0.00 | 38 | 1009.6 |
| 20260503204507 | 74 | 203 | 3.0 | 10.0 | 0.00 | 0.00 | 0.00 | 39 | 1009.9 |
| 20260503203004 | 74 | 201 | 4.0 | 9.0 | 0.00 | 0.00 | 0.00 | 40 | 1010.4 |
| 20260503201601 | 73 | 200 | 4.0 | 10.0 | 0.00 | 0.00 | 0.00 | 41 | 1010.8 |
| 20260503200058 | 73 | 170 | 2.0 | 14.0 | 0.00 | 0.00 | 0.00 | 44 | 1011.2 |
| 20260503194559 | 73 | 201 | 3.0 | 11.0 | 0.00 | 0.00 | 0.00 | 41 | 1011.5 |
| 20260503193050 | 72 | 208 | 3.0 | 11.0 | 0.00 | 0.00 | 0.00 | 42 | 1011.9 |
| 20260503191552 | 71 | 184 | 4.0 | 13.0 | 0.00 | 0.00 | 0.00 | 40 | 1012.4 |
| 20260503190043 | 70 | 207 | 3.0 | 13.0 | 0.00 | 0.00 | 0.00 | 43 | 1012.7 |
| 20260503184540 | 70 | 225 | 2.0 | 9.0 | 0.00 | 0.00 | 0.00 | 41 | 1013.2 |
| 20260503183036 | 69 | 198 | 2.0 | 11.0 | 0.00 | 0.00 | 0.00 | 45 | 1013.6 |
| 20260503181534 | 69 | 165 | 3.0 | 9.0 | 0.00 | 0.00 | 0.00 | 44 | 1014.2 |
| 20260503180030 | 68 | 240 | 2.0 | 13.0 | 0.00 | 0.00 | 0.00 | 46 | 1014.6 |
| 20260503174527 | 67 | 169 | 4.0 | 15.0 | 0.00 | 0.00 | 0.00 | 45 | 1015.0 |
| 20260503173028 | 67 | 219 | 5.0 | 16.0 | 0.00 | 0.00 | 0.00 | 45 | 1015.2 |
| 20260503171519 | 66 | 187 | 4.0 | 11.0 | 0.00 | 0.00 | 0.00 | 49 | 1015.6 |